Flag for U.S.A. Weather past 2 weeks in Syracuse, New York, U.S.A.

Now
52 °F

Overcast.


Feels Like: 48 °F
Forecast: 33 / 50 °F
Wind: 12 mph from South

Location: Syracuse Hancock International Airport

Current Time: Dec 27, 2014 at 9:38:10 PM

Latest Report: Dec 27, 2014 at 8:54 PM


Visibility: 10 mi

Pressure: 29.94 "Hg

Humidity: 57%

Dew point: 37 °F

Location of SyracuseLocation

Historic Weather in Syracuse — Graph

°F

Syracuse temperature yesterday

Maximum temperature yesterday: 45 °F (at 12:54 PM)
Minimum temperature yesterday: 29 °F (at 10:54 PM)
Average temperature yesterday: 39 °F

Past Weeks' High & Low Weather Summary

 TemperatureHumidityPressure
High58 °F (Dec 25, 12:54 AM)100% (Dec 13, 1:54 AM)30.35 "Hg (Dec 13, 1:54 AM)
Low22 °F (Dec 13, 6:54 AM)53% (Dec 26, 2:54 PM)29.28 "Hg (Dec 24, 11:54 PM)
Average34 °F88%30.03 "Hg
* Reported Dec 12 7:54 PM — Dec 27 7:54 PM, Syracuse, Weather by CustomWeather, © 2014

Note: Actual official high and low records may vary slightly from our data, if they occured in-between our weather recording intervals... More about our weather records

Advertising

Syracuse weather history for previous 24 hours

 ConditionsComfort  
Time TempWeatherWind HumidityBarometerVisibility
7:54 PM
Dec 27
52 °FOvercast.10 mph57%29.97 "Hg10 mi
6:54 PM52 °FOvercast.6 mph59%29.98 "Hg10 mi
5:54 PM51 °FPassing clouds.7 mph59%30.00 "Hg10 mi
4:54 PM52 °FPassing clouds.8 mph57%30.02 "Hg10 mi
3:54 PM54 °FPartly sunny.10 mph53%30.02 "Hg10 mi
2:54 PM54 °FMostly cloudy.9 mph53%30.04 "Hg10 mi
1:54 PM52 °FCloudy.9 mph57%30.07 "Hg10 mi
12:54 PM51 °FMostly cloudy.9 mph59%30.09 "Hg10 mi
11:54 AM50 °FMostly cloudy.9 mph59%30.12 "Hg10 mi
11:03 AM46 °FMore clouds than sun.3 mph71%30.17 "Hg10 mi
10:54 AM44 °FMostly cloudy.3 mph73%30.19 "Hg10 mi
9:54 AM39 °FMore clouds than sun.3 mph82%30.20 "Hg10 mi
8:54 AM37 °FMostly cloudy.3 mph86%30.19 "Hg10 mi
7:54 AM35 °FMostly cloudy.No wind88%30.18 "Hg10 mi
6:54 AM35 °FOvercast.No wind88%30.18 "Hg10 mi
5:54 AM34 °FOvercast.No wind88%30.18 "Hg10 mi
4:54 AM33 °FOvercast.No wind92%30.17 "Hg10 mi
3:54 AM33 °FOvercast.No wind88%30.16 "Hg10 mi
2:54 AM32 °FOvercast.5 mph88%30.18 "Hg10 mi
1:54 AM30 °FPassing clouds.No wind89%30.17 "Hg10 mi
12:54 AM29 °FPassing clouds.No wind89%30.16 "Hg10 mi
11:54 PM
Dec 26
30 °FClear.No wind85%30.15 "Hg10 mi
10:54 PM29 °FClear.No wind93%30.15 "Hg10 mi
9:54 PM31 °FClear.3 mph85%30.14 "Hg10 mi
Weather by CustomWeather, © 2014

See weather overviewHow to use our weather pages